Regional Weather Roundup
Issued by NWS Sterling, VA

Home | Current Version | Previous Version | Text Only | Print | Product List | Glossary On
Versions: 1 2 3 4 5 6 7 8 9 10 11 12 13 14 15 16 17 18 19 20 21 22 23 24 25 26 27 28 29 30 31 32 33 34 35 36 37 38 39 40 41 42 43 44 45 46 47 48 49 50
000
ASUS41 KLWX 041710
RWRLWX

REGIONAL WEATHER ROUNDUP
NATIONAL WEATHER SERVICE BALTIMORE MD/WASHINGTON DC
100 PM EDT SAT JUL 04 2015

Note: "FAIR" indicates few or no clouds below 12,000 feet
with no significant weather and/or obstructions to visibility.
 TC=TEMPERATURE CELSIUS

 * =Non NWS site. Station does not report precipitation (e.g. rain,
    snow, etc.), thunder, or fog.

DCZ001-MDZ009-015-VAZ040>042-051-053>054-041800-
WASHINGTON METRO

CITY           SKY/WX    TMP DP  RH WIND       PRES   REMARKS
WASHINGTON NAT PTSUNNY   78  70  76 E3        29.92S
DULLES         CLOUDY    77  69  76 CALM      29.91S
ANDREWS AFB    CLOUDY    76  71  87 NW2       29.91S
FT BELVOIR     CLOUDY    77  70  79 SW2       29.91S
QUANTICO       CLOUDY    78  70  76 S5        29.91S
LEESBURG*      PTSUNNY   77  72  83 S8        29.92S
MANASSAS*      PTSUNNY   79  70  73 CALM        N/A
GAITHERSBURG*  CLOUDY    73  68  83 E5        29.96S

$$

MDZ006>007-011-014-041800-
BALTIMORE METRO

CITY           SKY/WX    TMP DP  RH WIND       PRES   REMARKS
BWI AIRPORT    CLOUDY    74  67  78 CALM      29.92S
MD SCIENCE CTR   N/A     73  68  84 MISG      29.95R
MARTIN STATE   DRIZZLE   72  72 100 CALM      29.93F FOG
ANNAPOLIS      PTSUNNY   76  67  73 E3        29.91F
FORT MEADE*    CLOUDY    73  68  83 SE5       29.94S

$$

MDZ012-015-019>023-041800-
MARYLAND EASTERN SHORE

CITY           SKY/WX    TMP DP  RH WIND       PRES   REMARKS
OCEAN CITY     CLOUDY    75  70  84 NE9       29.90R
SALISBURY      CLOUDY    78  71  79 N6        29.90R
BAY BRIDGE AP*   N/A     75  66  73 CALM      29.91F
EASTON*        MOSUNNY   81  72  74 E3        29.94

$$

MDZ017>025-041800-
SOUTHERN MARYLAND

CITY           SKY/WX    TMP DP  RH WIND       PRES   REMARKS
PATUXENT RIVER PTSUNNY   79  71  76 NE8       29.90S
ST INIGOES     MOSUNNY   82  71  69 S6        29.89F
LEONARDTOWN*   CLOUDY    79  68  69 CALM      29.92S

$$

MDZ003>005-041800-
NORTH CENTRAL MARYLAND

CITY           SKY/WX    TMP DP  RH WIND       PRES   REMARKS
FREDERICK*     CLOUDY    72  70  94 N5        29.95S FOG
HAGERSTOWN APT CLOUDY    71  67  87 N6        29.93R FOG
WESTMINSTER*   CLOUDY    72  66  83 CALM      29.94S

$$

MDZ501>502-041800-
WESTERN MARYLAND

CITY           SKY/WX    TMP DP  RH WIND       PRES   REMARKS
OAKLAND*       CLOUDY    63 N/A N/A W7        30.03R HAZE
CUMBERLAND*    PTSUNNY   75  70  83 CALM      29.95F

$$

VAZ025>031-041800-
SHENANDOAH VALLEY

CITY           SKY/WX    TMP DP  RH WIND       PRES   REMARKS
WINCHESTER*    PTSUNNY   81  70  69 SW5       29.92R
FRONT ROYAL*   CLOUDY    77  70  78 CALM      29.91R
LURAY*         CLOUDY    82  70  65 SW6       29.93S
NEW MARKET*    CLOUDY    78  69  73 CALM      29.91S
STAUNTON*      PTSUNNY   82  68  62 SW6       29.96S
WAYNESBORO*    FAIR      78  68  69 W6        29.96R

$$

WVZ021-048>050-054>055-041800-
EASTERN WEST VIRGINIA PANHANDLE

CITY           SKY/WX    TMP DP  RH WIND       PRES   REMARKS
MARTINSBURG    CLOUDY    76  67  73 CALM      29.91F
PETERSBURG*    CLOUDY    81  63  54 CALM      29.94R

$$

VAZ036>039-050-041800-
CENTRAL FOOTHILLS

CITY           SKY/WX    TMP DP  RH WIND       PRES   REMARKS
CHARLOTTESVILL CLOUDY    79  69  71 SW6       29.92S
CULPEPER*      CLOUDY    78  69  73 CALM      29.92S
ORANGE*        PTSUNNY   81  72  74 S3        29.94R
GORDONSVILLE*  CLOUDY    79  70  73 CALM      29.92S
WARRENTON*     FAIR      81  72  73 CALM      29.91S

$$

VAZ055>057-041800-
NORTH AND CENTRAL PIEDMONT

CITY           SKY/WX    TMP DP  RH WIND       PRES   REMARKS
FREDERICKSBRG* CLOUDY    82  70  68 SW6       29.91R
STAFFORD*      CLOUDY    78  68  71 CALM      29.95S

$$

NCZ024-NYZ072-PAZ021-071-VAZ022-071-041800-
OTHER REGIONAL OBSERVATIONS

CITY           SKY/WX    TMP DP  RH WIND       PRES   REMARKS
NEW YORK CITY  CLOUDY    72  61  68 VRB7      29.99S
PHILADELPHIA   LGT RAIN  73  65  75 NE9       29.93F
PITTSBURGH     MOSUNNY   77  63  61 VRB7      29.96S
ROANOKE        PTSUNNY   81  65  58 W12       29.98F
RICHMOND       PTSUNNY   81  69  67 SW10      29.92S
RALEIGH        PTSUNNY   81  70  69 W8        29.99S

$$

ANZ530>537-041800-
MARINE OBSERVATIONS

STATION/POSITION TIME  TEMP    WIND        PRES
                       AIR SEA DIR/SP/G
                 (UTC) (F)     (DEG/KT/KT) (MB)
THOMAS PT LIGHT  1700   73 76   40/  4/  5 1013.4S
BALT KEY BRIDGE  1600   71      CALM  /  2 1013.0R
COVE POINT       1600   74      20/  7/ 10 1013.3R
LEWISETTA        1600   77 80   10/  7/  9 1012.3R
SOLOMONS ISLAND  1600      79                N/A
PINEY POINT      1600          340/  7/  9   N/A

$$



USA.gov is the U.S. government's official web portal to all federal, state and local government web resources and services.